JST518 YMLT-YMML

Flight info

Callsign JST518
Flight time 0h 48m
Altitude 32000
Route FLIKI H215 RAZZI
Aircraft A321/M-SDE3FGHIRWY/LB1

Departure

Time 2026-04-16 01:16
Airport Launceston Airport (YMLT)

Arrival

Time 2026-04-16 02:04
Airport Melbourne Airport (YMML)
Time Latitude Longitude Altitude Speed Heading
2026-04-16 01:03 -41.54316 147.20682 583 ft 0 kts 296°
2026-04-16 01:04 -41.54326 147.20711 583 ft 4 kts 296°
2026-04-16 01:04 -41.54335 147.20734 584 ft 1 kts 296°
2026-04-16 01:04 -41.54336 147.20737 584 ft 0 kts 296°
2026-04-16 01:07 -41.54333 147.20734 584 ft 0 kts 313°
2026-04-16 01:07 -41.54327 147.20735 604 ft 2 kts 358°
2026-04-16 01:07 -41.54325 147.20748 584 ft 1 kts 100°
2026-04-16 01:08 -41.54342 147.20768 584 ft 5 kts 141°
2026-04-16 01:08 -41.54374 147.20797 584 ft 7 kts 148°
2026-04-16 01:08 -41.54396 147.20814 584 ft 4 kts 148°
2026-04-16 01:08 -41.54426 147.20840 584 ft 6 kts 147°
2026-04-16 01:09 -41.54461 147.20871 586 ft 5 kts 147°
2026-04-16 01:09 -41.54480 147.20887 587 ft 1 kts 147°
2026-04-16 01:09 -41.54490 147.20896 588 ft 4 kts 147°
2026-04-16 01:09 -41.54529 147.20928 590 ft 10 kts 148°
2026-04-16 01:10 -41.54611 147.20997 589 ft 17 kts 147°
2026-04-16 01:10 -41.54710 147.21082 588 ft 17 kts 147°
2026-04-16 01:10 -41.54819 147.21174 584 ft 20 kts 147°
2026-04-16 01:10 -41.54940 147.21279 584 ft 21 kts 147°
2026-04-16 01:11 -41.55045 147.21369 583 ft 17 kts 147°
2026-04-16 01:11 -41.55143 147.21452 585 ft 14 kts 148°
2026-04-16 01:11 -41.55207 147.21510 587 ft 8 kts 137°
2026-04-16 01:11 -41.55213 147.21520 587 ft 0 kts 132°
2026-04-16 01:13 -41.55216 147.21525 587 ft 1 kts 131°
2026-04-16 01:13 -41.55222 147.21537 587 ft 3 kts 121°
2026-04-16 01:13 -41.55229 147.21575 588 ft 5 kts 97°
2026-04-16 01:14 -41.55227 147.21614 589 ft 4 kts 78°
2026-04-16 01:14 -41.55214 147.21654 590 ft 6 kts 66°
2026-04-16 01:14 -41.55192 147.21679 591 ft 3 kts
2026-04-16 01:14 -41.55177 147.21673 591 ft 2 kts 340°
2026-04-16 01:15 -41.55155 147.21658 592 ft 9 kts 332°
2026-04-16 01:15 -41.54962 147.21495 589 ft 68 kts 326°
2026-04-16 01:15 -41.54381 147.20994 594 ft 128 kts 327°
2026-04-16 01:15 -41.53569 147.20285 1070 ft 143 kts 326°
2026-04-16 01:16 -41.52699 147.19537 1885 ft 153 kts 326°
2026-04-16 01:16 -41.51727 147.18870 2783 ft 159 kts 333°
2026-04-16 01:16 -41.50649 147.18346 3474 ft 175 kts 333°
2026-04-16 01:16 -41.49450 147.17749 4002 ft 192 kts 333°
2026-04-16 01:17 -41.48127 147.17083 4495 ft 216 kts 332°
2026-04-16 01:17 -41.46661 147.16323 5173 ft 234 kts 332°
2026-04-16 01:17 -41.45130 147.15522 6158 ft 240 kts 332°
2026-04-16 01:17 -41.43562 147.14702 7105 ft 244 kts 332°
2026-04-16 01:18 -41.41990 147.13872 8054 ft 248 kts 332°
2026-04-16 01:18 -41.40353 147.13001 8968 ft 252 kts 332°
2026-04-16 01:18 -41.38735 147.12136 9841 ft 255 kts 331°
2026-04-16 01:18 -41.37039 147.11225 10427 ft 269 kts 331°
2026-04-16 01:19 -41.35263 147.10261 10592 ft 290 kts 331°
2026-04-16 01:19 -41.33323 147.09209 10724 ft 311 kts 332°
2026-04-16 01:19 -41.31274 147.08107 11124 ft 321 kts 332°
2026-04-16 01:19 -41.29184 147.06994 11726 ft 325 kts 332°
2026-04-16 01:20 -41.27076 147.05876 12345 ft 329 kts 331°
2026-04-16 01:20 -41.24942 147.04742 12977 ft 332 kts 331°
2026-04-16 01:20 -41.22786 147.03596 13596 ft 335 kts 331°
2026-04-16 01:20 -41.20614 147.02439 14159 ft 338 kts 331°
2026-04-16 01:21 -41.18424 147.01272 14706 ft 340 kts 331°
2026-04-16 01:21 -41.16217 147.00095 15260 ft 343 kts 331°
2026-04-16 01:21 -41.13993 146.98910 15831 ft 346 kts 331°
2026-04-16 01:21 -41.11749 146.97719 16442 ft 349 kts 331°
2026-04-16 01:22 -41.09486 146.96516 17102 ft 352 kts 331°
2026-04-16 01:22 -41.07203 146.95303 17650 ft 355 kts 331°
2026-04-16 01:22 -41.04902 146.94078 18172 ft 358 kts 331°
2026-04-16 01:22 -41.02583 146.92847 18661 ft 360 kts 331°
2026-04-16 01:23 -41.00248 146.91609 19141 ft 363 kts 331°
2026-04-16 01:23 -40.97898 146.90363 19633 ft 365 kts 331°
2026-04-16 01:23 -40.95537 146.89114 20103 ft 367 kts 331°
2026-04-16 01:23 -40.93155 146.87855 20582 ft 370 kts 331°
2026-04-16 01:24 -40.90757 146.86589 21042 ft 372 kts 331°
2026-04-16 01:24 -40.88342 146.85314 21463 ft 375 kts 331°
2026-04-16 01:24 -40.85943 146.84047 21886 ft 378 kts 331°
2026-04-16 01:24 -40.83495 146.82756 22317 ft 380 kts 331°
2026-04-16 01:25 -40.81032 146.81461 22731 ft 382 kts 331°
2026-04-16 01:25 -40.78553 146.80158 23143 ft 385 kts 331°
2026-04-16 01:25 -40.76059 146.78848 23534 ft 387 kts 331°
2026-04-16 01:25 -40.73552 146.77527 23892 ft 389 kts 331°
2026-04-16 01:26 -40.71035 146.76200 24231 ft 390 kts 331°
2026-04-16 01:26 -40.68507 146.74869 24588 ft 392 kts 331°
2026-04-16 01:26 -40.65969 146.73537 24908 ft 393 kts 331°
2026-04-16 01:26 -40.63419 146.72204 25237 ft 395 kts 331°
2026-04-16 01:27 -40.60855 146.70869 25565 ft 397 kts 331°
2026-04-16 01:27 -40.58285 146.69529 25888 ft 399 kts 331°
2026-04-16 01:27 -40.55699 146.68180 26221 ft 401 kts 331°
2026-04-16 01:27 -40.53104 146.66824 26548 ft 402 kts 331°
2026-04-16 01:28 -40.50498 146.65464 26873 ft 404 kts 331°
2026-04-16 01:28 -40.47884 146.64098 27192 ft 405 kts 331°
2026-04-16 01:28 -40.45259 146.62729 27501 ft 407 kts 331°
2026-04-16 01:28 -40.42626 146.61352 27775 ft 408 kts 331°
2026-04-16 01:29 -40.39979 146.59972 28043 ft 410 kts 331°
2026-04-16 01:29 -40.37319 146.58591 28342 ft 412 kts 332°
2026-04-16 01:29 -40.34646 146.57211 28640 ft 414 kts 332°
2026-04-16 01:29 -40.31962 146.55827 28940 ft 415 kts 332°
2026-04-16 01:30 -40.29270 146.54432 29248 ft 417 kts 331°
2026-04-16 01:30 -40.26571 146.53028 29552 ft 418 kts 331°
2026-04-16 01:30 -40.23879 146.51634 29962 ft 416 kts 331°
2026-04-16 01:30 -40.21183 146.50241 30320 ft 415 kts 331°
2026-04-16 01:31 -40.18508 146.48859 30623 ft 414 kts 332°
2026-04-16 01:31 -40.15828 146.47474 30926 ft 414 kts 332°
2026-04-16 01:31 -40.13150 146.46091 31230 ft 414 kts 332°
2026-04-16 01:31 -40.10474 146.44715 31556 ft 413 kts 332°
2026-04-16 01:32 -40.07803 146.43344 31838 ft 413 kts 332°
2026-04-16 01:32 -40.02516 146.40633 31925 ft 404 kts 332°
2026-04-16 01:33 -39.97340 146.37976 31907 ft 402 kts 331°
2026-04-16 01:33 -39.92137 146.35292 31929 ft 402 kts 332°
2026-04-16 01:34 -39.86934 146.32609 31928 ft 403 kts 332°
2026-04-16 01:34 -39.81720 146.29937 31933 ft 403 kts 332°
2026-04-16 01:35 -39.76502 146.27265 31933 ft 403 kts 331°
2026-04-16 01:35 -39.71280 146.24591 31915 ft 404 kts 332°
2026-04-16 01:36 -39.66046 146.21920 31927 ft 404 kts 332°
2026-04-16 01:36 -39.60804 146.19248 31936 ft 405 kts 332°
2026-04-16 01:37 -39.55561 146.16570 31946 ft 405 kts 332°
2026-04-16 01:37 -39.50308 146.13913 31953 ft 405 kts 332°
2026-04-16 01:38 -39.45061 146.11260 31959 ft 405 kts 332°
2026-04-16 01:38 -39.39810 146.08599 31965 ft 405 kts 332°
2026-04-16 01:39 -39.34561 146.05936 31966 ft 405 kts 332°
2026-04-16 01:39 -39.29310 146.03282 31939 ft 405 kts 331°
2026-04-16 01:40 -39.24061 146.00626 31943 ft 405 kts 332°
2026-04-16 01:40 -39.18801 145.97975 31954 ft 406 kts 332°
2026-04-16 01:41 -39.13568 145.95351 31954 ft 406 kts 332°
2026-04-16 01:41 -39.08265 145.92697 31963 ft 407 kts 332°
2026-04-16 01:42 -39.03024 145.90081 31610 ft 407 kts 332°
2026-04-16 01:42 -39.00377 145.88753 30977 ft 407 kts 332°
2026-04-16 01:42 -38.97751 145.87439 30523 ft 403 kts 332°
2026-04-16 01:42 -38.95151 145.86142 30046 ft 399 kts 332°
2026-04-16 01:43 -38.92575 145.84865 29534 ft 394 kts 332°
2026-04-16 01:43 -38.90031 145.83604 28956 ft 391 kts 332°
2026-04-16 01:43 -38.87469 145.82322 27846 ft 401 kts 332°
2026-04-16 01:43 -38.84876 145.81023 27320 ft 397 kts 332°
2026-04-16 01:44 -38.82318 145.79752 26854 ft 391 kts 332°
2026-04-16 01:44 -38.79797 145.78504 26420 ft 386 kts 332°
2026-04-16 01:44 -38.77311 145.77272 25982 ft 380 kts 332°
2026-04-16 01:44 -38.74857 145.76057 25554 ft 376 kts 332°
2026-04-16 01:45 -38.72432 145.74855 25145 ft 372 kts 332°
2026-04-16 01:45 -38.70032 145.73667 24735 ft 368 kts 331°
2026-04-16 01:45 -38.67653 145.72486 24330 ft 365 kts 331°
2026-04-16 01:45 -38.65294 145.71316 23943 ft 362 kts 331°
2026-04-16 01:46 -38.62956 145.70158 23556 ft 360 kts 331°
2026-04-16 01:46 -38.60662 145.69019 23130 ft 356 kts 331°
2026-04-16 01:46 -38.58340 145.67874 22746 ft 351 kts 332°
2026-04-16 01:46 -38.56105 145.66776 22381 ft 346 kts 331°
2026-04-16 01:47 -38.53844 145.65663 21998 ft 341 kts 331°
2026-04-16 01:47 -38.51649 145.64583 21624 ft 336 kts 331°
2026-04-16 01:47 -38.50207 145.63873 21377 ft 333 kts 331°
2026-04-16 01:47 -38.47362 145.62457 20804 ft 329 kts 328°
2026-04-16 01:48 -38.45359 145.61132 20388 ft 322 kts 324°
2026-04-16 01:48 -38.43398 145.59769 19963 ft 320 kts 324°
2026-04-16 01:48 -38.41447 145.58421 19542 ft 318 kts 324°
2026-04-16 01:48 -38.39507 145.57085 19109 ft 316 kts 324°
2026-04-16 01:49 -38.37573 145.55754 18676 ft 315 kts 324°
2026-04-16 01:49 -38.35647 145.54431 18231 ft 314 kts 324°
2026-04-16 01:49 -38.34381 145.53561 17919 ft 312 kts 324°
2026-04-16 01:49 -38.32478 145.52256 17465 ft 309 kts 325°
2026-04-16 01:50 -38.30596 145.50965 17049 ft 306 kts 324°
2026-04-16 01:50 -38.28732 145.49688 16624 ft 303 kts 324°
2026-04-16 01:50 -38.26883 145.48423 16193 ft 300 kts 324°
2026-04-16 01:50 -38.25051 145.47169 15785 ft 298 kts 324°
2026-04-16 01:51 -38.23238 145.45925 15371 ft 296 kts 324°
2026-04-16 01:51 -38.21431 145.44683 14960 ft 294 kts 324°
2026-04-16 01:51 -38.19643 145.43455 14549 ft 292 kts 324°
2026-04-16 01:51 -38.17860 145.42234 14140 ft 290 kts 324°
2026-04-16 01:52 -38.16088 145.41019 13727 ft 289 kts 324°
2026-04-16 01:52 -38.14325 145.39812 13288 ft 287 kts 324°
2026-04-16 01:52 -38.12577 145.38620 12880 ft 284 kts 324°
2026-04-16 01:52 -38.10845 145.37441 12469 ft 281 kts 324°
2026-04-16 01:53 -38.09131 145.36271 12085 ft 278 kts 324°
2026-04-16 01:53 -38.07431 145.35109 11676 ft 277 kts 324°
2026-04-16 01:53 -38.05741 145.33953 11306 ft 275 kts 324°
2026-04-16 01:53 -38.04058 145.32804 10908 ft 274 kts 324°
2026-04-16 01:54 -38.02382 145.31660 10541 ft 273 kts 324°
2026-04-16 01:54 -38.00723 145.30524 10300 ft 267 kts 324°
2026-04-16 01:54 -37.99116 145.29406 10111 ft 259 kts 324°
2026-04-16 01:54 -37.97544 145.28303 10059 ft 259 kts 324°
2026-04-16 01:55 -37.95972 145.27194 10001 ft 259 kts 324°
2026-04-16 01:55 -37.94388 145.26078 9649 ft 264 kts 324°
2026-04-16 01:55 -37.92774 145.24943 9247 ft 264 kts 324°
2026-04-16 01:55 -37.91162 145.23819 8802 ft 265 kts 324°
2026-04-16 01:56 -37.89560 145.22705 8507 ft 261 kts 324°
2026-04-16 01:56 -37.87968 145.21597 8109 ft 261 kts 324°
2026-04-16 01:56 -37.86389 145.20489 7662 ft 257 kts 322°
2026-04-16 01:56 -37.85055 145.19061 7071 ft 249 kts 304°
2026-04-16 01:57 -37.84211 145.17199 6578 ft 241 kts 287°
2026-04-16 01:57 -37.83832 145.15214 6389 ft 226 kts 281°
2026-04-16 01:57 -37.83504 145.13300 6053 ft 219 kts 282°
2026-04-16 01:57 -37.83179 145.11448 5942 ft 215 kts 282°
2026-04-16 01:58 -37.82858 145.09628 5825 ft 210 kts 282°
2026-04-16 01:58 -37.82543 145.07823 5679 ft 210 kts 282°
2026-04-16 01:58 -37.82230 145.06033 5458 ft 207 kts 282°
2026-04-16 01:58 -37.81923 145.04275 5227 ft 201 kts 283°
2026-04-16 01:59 -37.81628 145.02576 4948 ft 195 kts 283°
2026-04-16 01:59 -37.81439 145.00904 4680 ft 190 kts 272°
2026-04-16 01:59 -37.81644 144.99262 4420 ft 190 kts 262°
2026-04-16 01:59 -37.81938 144.97636 4172 ft 190 kts 263°
2026-04-16 02:00 -37.82204 144.96002 3854 ft 190 kts 267°
2026-04-16 02:00 -37.82273 144.94326 3429 ft 189 kts 277°
2026-04-16 02:00 -37.82109 144.92717 3209 ft 182 kts 286°
2026-04-16 02:00 -37.81741 144.91208 3043 ft 182 kts 294°
2026-04-16 02:01 -37.81161 144.89764 2868 ft 183 kts 303°
2026-04-16 02:01 -37.80395 144.88470 2696 ft 184 kts 312°
2026-04-16 02:01 -37.79467 144.87365 2490 ft 183 kts 321°
2026-04-16 02:01 -37.78396 144.86477 2272 ft 186 kts 330°
2026-04-16 02:02 -37.77233 144.85850 2066 ft 178 kts 339°
2026-04-16 02:02 -37.76081 144.85503 1825 ft 168 kts 347°
2026-04-16 02:02 -37.74953 144.85294 1600 ft 158 kts 348°
2026-04-16 02:02 -37.73926 144.85104 1403 ft 143 kts 349°
2026-04-16 02:03 -37.72950 144.84917 1232 ft 143 kts 351°
2026-04-16 02:03 -37.71984 144.84738 1042 ft 141 kts 350°
2026-04-16 02:03 -37.71017 144.84559 840 ft 141 kts 348°
2026-04-16 02:04 -37.69080 144.84207 517 ft 138 kts 347°
2026-04-16 02:04 -37.68128 144.84018 372 ft 132 kts 346°
2026-04-16 02:04 -37.67410 144.83875 370 ft 53 kts 352°
2026-04-16 02:04 -37.67097 144.83828 383 ft 40 kts 360°
2026-04-16 02:05 -37.66866 144.83900 391 ft 24 kts 20°
2026-04-16 02:05 -37.66758 144.83964 390 ft 15 kts 40°
2026-04-16 02:05 -37.66719 144.84067 388 ft 12 kts 81°
2026-04-16 02:05 -37.66756 144.84165 393 ft 14 kts 138°
2026-04-16 02:06 -37.66859 144.84205 390 ft 17 kts 172°
2026-04-16 02:06 -37.66978 144.84225 386 ft 15 kts 172°
2026-04-16 02:06 -37.67093 144.84246 384 ft 18 kts 172°
2026-04-16 02:06 -37.67197 144.84295 382 ft 17 kts 123°
2026-04-16 02:07 -37.67201 144.84398 384 ft 0 kts 86°
2026-04-16 02:07 -37.67201 144.84400 384 ft 1 kts 86°
2026-04-16 02:07 -37.67200 144.84417 384 ft 4 kts 85°
2026-04-16 02:07 -37.67201 144.84449 384 ft 0 kts 93°
2026-04-16 02:08 -37.67201 144.84450 384 ft 0 kts 93°
2026-04-16 02:08 -37.67203 144.84467 385 ft 6 kts 97°
2026-04-16 02:08 -37.67208 144.84540 385 ft 9 kts 88°
2026-04-16 02:08 -37.67208 144.84592 386 ft 3 kts 127°
2026-04-16 02:09 -37.67233 144.84604 386 ft 5 kts 162°
2026-04-16 02:09 -37.67250 144.84609 385 ft 2 kts 169°
2026-04-16 02:09 -37.67264 144.84612 385 ft 1 kts 171°
2026-04-16 02:09 -37.67271 144.84613 385 ft 0 kts 171°